Location: Kergonan
(48.2337°N, 4.5518°W)
Time: 16:56:02
(UTC+00:00)

NOSS 2-2 (C) - Pass Details

Date: 18 January 2020
Orbit: 484 x 1725 km, 63.3° (Epoch: 03 February)

Event Time Altitude Azimuth Distance (km) Brightness Sun altitude
Exits shadow 07:15:19 - 247° (WSW) 2,371 6.1 -7.8°
Reaches altitude 10° 07:17:02 10° 256° (WSW) 1,701 5.3 -7.6°
Maximum altitude 07:20:26 34° 324° (NW) 902 4.0 -7.0°
Drops below altitude 10° 07:24:26 10° 30° (NNE) 2,002 6.3 -6.4°
Sets 07:27:10 0° 40° (NE) 3,084 7.3 -6.0°
